HULIANWANG DIGUI 13B

Last updated on Wed Dec 10 2025 00:02:06 GMT+0000 (Coordinated Universal Time)

1 66413U 25258B 25342.86172318 .00000876 00000+0 48755-3 0 9996 2 66413 49.9968 278.4258 0004925 347.5577 12.5212 14.19495379 4101
UTC large
Height (km)
Speed (km/s)
/
Latitude / Longitude
Inclination (degrees)
Orbital Period (minutes)
Azimuth
Elevation
Range (km)
Doppler Factor

Next 0 passes for location: London (51.5072 / 0.1276)

Sorry there are no passes over London.